"Period start","avg(HW err(1)/warn(2) (#))","avg(Visibility (m))","avg(Weather code (#))","avg(Precip intensity (mm/h))","min(HW err(1)/warn(2) (#))","max(HW err(1)/warn(2) (#))","std(HW err(1)/warn(2) (#))","med(HW err(1)/warn(2) (#))","min(Visibility (m))","max(Visibility (m))","std(Visibility (m))","med(Visibility (m))","min(Weather code (#))","max(Weather code (#))","std(Weather code (#))","med(Weather code (#))","min(Precip intensity (mm/h))","max(Precip intensity (mm/h))","std(Precip intensity (mm/h))","med(Precip intensity (mm/h))"
2014-05-24 00:00:00,0,36248,0,0.00,0,2,1,0,25714,48919,6540,34894,0,0,0,0,0.00,0.00,0.00,0.00
2014-05-24 00:10:00,0,46344,0,0.00,0,0,0,0,39852,50000,3407,47781,0,0,0,0,0.00,0.00,0.00,0.00
2014-05-24 00:20:00,1,37510,0,0.00,0,2,1,2,28363,50000,7354,35667,0,0,0,0,0.00,0.00,0.00,0.00
2014-05-24 00:30:00,2,40383,0,0.00,2,2,0,2,26398,50000,8090,41301,0,0,0,0,0.00,0.00,0.00,0.00
2014-05-24 00:40:00,2,41247,0,0.00,2,2,0,2,28750,49683,6377,42610,0,0,0,0,0.00,0.00,0.00,0.00
2014-05-24 00:50:00,2,37754,0,0.00,2,2,0,2,25053,50000,9908,34996,0,0,0,0,0.00,0.00,0.00,0.00
2014-05-24 01:00:00,1,34437,0,0.00,0,2,1,1,18128,48622,10029,33908,0,0,0,0,0.00,0.00,0.00,0.00
2014-05-24 01:10:00,0,33082,0,0.00,0,0,0,0,21870,48242,8789,33137,0,0,0,0,0.00,0.00,0.00,0.00
2014-05-24 01:20:00,0,40404,0,0.00,0,0,0,0,24321,49663,7495,42114,0,0,0,0,0.00,0.00,0.00,0.00
2014-05-24 01:30:00,0,46700,0,0.00,0,0,0,0,39775,50000,3435,47802,0,0,0,0,0.00,0.00,0.00,0.00
2014-05-24 01:40:00,0,45849,0,0.00,0,0,0,0,36635,50000,4815,47774,0,0,0,0,0.00,0.00,0.00,0.00
2014-05-24 01:50:00,1,32109,0,0.00,0,2,1,0,22688,50000,7945,30638,0,0,0,0,0.00,0.00,0.00,0.00
2014-05-24 02:00:00,2,39113,0,0.00,2,2,0,2,25001,50000,7019,39320,0,0,0,0,0.00,0.00,0.00,0.00
2014-05-24 02:10:00,2,43320,0,0.00,2,2,0,2,21997,50000,9120,48676,0,0,0,0,0.00,0.00,0.00,0.00
2014-05-24 02:20:00,2,48432,0,0.00,2,2,0,2,42326,50000,2534,50000,0,0,0,0,0.00,0.00,0.00,0.00
2014-05-24 02:30:00,2,45653,0,0.00,2,2,0,2,33159,50000,4980,47692,0,0,0,0,0.00,0.00,0.00,0.00
2014-05-24 02:40:00,2,46963,0,0.00,2,2,0,2,42253,50000,2151,46759,0,0,0,0,0.00,0.00,0.00,0.00
2014-05-24 02:50:00,2,43829,0,0.00,2,2,0,2,38720,49893,3720,43687,0,0,0,0,0.00,0.00,0.00,0.00
2014-05-24 03:00:00,2,42073,0,0.00,2,2,0,2,25684,50000,8659,46606,0,0,0,0,0.00,0.00,0.00,0.00
2014-05-24 03:10:00,2,43642,0,0.00,2,2,0,2,30007,50000,6632,46079,0,0,0,0,0.00,0.00,0.00,0.00
2014-05-24 03:20:00,2,44504,0,0.00,2,2,0,2,34520,50000,5355,46094,0,0,0,0,0.00,0.00,0.00,0.00
2014-05-24 03:30:00,2,38417,0,0.00,2,2,0,2,29450,50000,7723,35200,0,0,0,0,0.00,0.00,0.00,0.00
2014-05-24 03:40:00,2,46815,0,0.00,0,2,1,2,37192,50000,3902,48238,0,0,0,0,0.00,0.00,0.00,0.00
2014-05-24 03:50:00,1,46790,0,0.00,0,2,1,2,38814,50000,4190,49532,0,0,0,0,0.00,0.00,0.00,0.00
2014-05-24 04:00:00,0,42269,0,0.00,0,0,0,0,31065,50000,7605,46265,0,0,0,0,0.00,0.00,0.00,0.00
2014-05-24 04:10:00,0,48466,0,0.00,0,2,1,0,44510,50000,2016,49706,0,0,0,0,0.00,0.00,0.00,0.00
2014-05-24 04:20:00,2,48449,0,0.00,0,2,1,2,44505,50000,1763,49100,0,0,0,0,0.00,0.00,0.00,0.00
2014-05-24 04:30:00,2,46664,0,0.00,2,2,0,2,36865,50000,4954,49318,0,0,0,0,0.00,0.00,0.00,0.00
2014-05-24 04:40:00,2,45892,0,0.00,0,2,1,2,41601,50000,3093,46664,0,0,0,0,0.00,0.00,0.00,0.00
2014-05-24 04:50:00,2,45384,0,0.00,2,2,0,2,31855,50000,5511,46258,0,0,0,0,0.00,0.00,0.00,0.00
2014-05-24 05:00:00,0,45382,0,0.00,0,0,0,0,36954,50000,4526,46088,0,0,0,0,0.00,0.00,0.00,0.00
2014-05-24 05:10:00,0,44483,0,0.00,0,0,0,0,30142,50000,6910,47279,0,0,0,0,0.00,0.00,0.00,0.00
2014-05-24 05:20:00,0,45918,0,0.00,0,0,0,0,33630,50000,5775,48708,0,0,0,0,0.00,0.00,0.00,0.00
2014-05-24 05:30:00,0,48778,0,0.00,0,0,0,0,44609,50000,1747,49818,0,0,0,0,0.00,0.00,0.00,0.00
2014-05-24 05:40:00,0,47295,0,0.00,0,0,0,0,38964,50000,3629,49104,0,0,0,0,0.00,0.00,0.00,0.00
2014-05-24 05:50:00,0,48758,0,0.00,0,0,0,0,43118,50000,1996,49457,0,0,0,0,0.00,0.00,0.00,0.00
2014-05-24 06:00:00,0,47855,0,0.00,0,0,0,0,40414,50000,3073,49364,0,0,0,0,0.00,0.00,0.00,0.00
2014-05-24 06:10:00,0,49541,0,0.00,0,0,0,0,45477,50000,1355,50000,0,0,0,0,0.00,0.00,0.00,0.00
2014-05-24 06:20:00,0,47632,0,0.00,0,0,0,0,34526,50000,4991,50000,0,0,0,0,0.00,0.00,0.00,0.00
2014-05-24 06:30:00,0,46604,0,0.00,0,0,0,0,39650,50000,3804,48436,0,0,0,0,0.00,0.00,0.00,0.00
2014-05-24 06:40:00,0,49589,0,0.00,0,0,0,0,48102,50000,635,50000,0,0,0,0,0.00,0.00,0.00,0.00
2014-05-24 06:50:00,0,46756,0,0.00,0,0,0,0,35762,50000,4268,48344,0,0,0,0,0.00,0.00,0.00,0.00
2014-05-24 07:00:00,0,49000,0,0.00,0,0,0,0,47602,50000,1045,49480,0,0,0,0,0.00,0.00,0.00,0.00
2014-05-24 07:10:00,0,44360,0,0.00,0,0,0,0,35307,50000,5547,45476,0,0,0,0,0.00,0.00,0.00,0.00
2014-05-24 07:20:00,0,47414,0,0.00,0,0,0,0,41690,50000,3136,48854,0,0,0,0,0.00,0.00,0.00,0.00
2014-05-24 07:30:00,0,47719,0,0.00,0,0,0,0,42726,50000,2672,49100,0,0,0,0,0.00,0.00,0.00,0.00
2014-05-24 07:40:00,0,48017,0,0.00,0,0,0,0,41570,50000,2656,49176,0,0,0,0,0.00,0.00,0.00,0.00
2014-05-24 07:50:00,0,47684,0,0.00,0,0,0,0,41373,50000,2553,48420,0,0,0,0,0.00,0.00,0.00,0.00
2014-05-24 08:00:00,0,49457,0,0.00,0,0,0,0,47905,50000,743,50000,0,0,0,0,0.00,0.00,0.00,0.00
2014-05-24 08:10:00,0,48109,0,0.00,0,0,0,0,43529,50000,2082,48532,0,0,0,0,0.00,0.00,0.00,0.00
2014-05-24 08:20:00,0,47343,0,0.00,0,0,0,0,42610,50000,3167,49250,0,0,0,0,0.00,0.00,0.00,0.00
2014-05-24 08:30:00,0,48557,0,0.00,0,0,0,0,45667,50000,1615,49040,0,0,0,0,0.00,0.00,0.00,0.00
2014-05-24 08:40:00,0,49982,0,0.00,0,0,0,0,49818,50000,55,50000,0,0,0,0,0.00,0.00,0.00,0.00
2014-05-24 08:50:00,0,49405,0,0.00,0,0,0,0,46066,50000,1188,50000,0,0,0,0,0.00,0.00,0.00,0.00
2014-05-24 09:00:00,0,49714,0,0.00,0,0,0,0,47144,50000,857,50000,0,0,0,0,0.00,0.00,0.00,0.00
2014-05-24 09:10:00,0,48395,0,0.00,0,2,1,0,44850,50000,2017,49678,0,0,0,0,0.00,0.00,0.00,0.00
2014-05-24 09:20:00,2,50000,0,0.00,2,2,0,2,50000,50000,0,50000,0,0,0,0,0.00,0.00,0.00,0.00
2014-05-24 09:30:00,2,49867,0,0.00,2,2,0,2,48667,50000,400,50000,0,0,0,0,0.00,0.00,0.00,0.00
2014-05-24 09:40:00,2,49238,0,0.00,2,2,0,2,46609,50000,1318,50000,0,0,0,0,0.00,0.00,0.00,0.00
2014-05-24 09:50:00,2,48742,0,0.00,2,2,0,2,44735,50000,1766,50000,0,0,0,0,0.00,0.00,0.00,0.00
2014-05-24 10:00:00,2,48974,0,0.00,2,2,0,2,46759,50000,1287,50000,0,0,0,0,0.00,0.00,0.00,0.00
2014-05-24 10:10:00,2,49655,0,0.00,0,2,1,2,46551,50000,1035,50000,0,0,0,0,0.00,0.00,0.00,0.00
2014-05-24 10:20:00,0,49447,0,0.00,0,0,0,0,46517,50000,1152,50000,0,0,0,0,0.00,0.00,0.00,0.00
2014-05-24 10:30:00,0,49870,0,0.00,0,0,0,0,48697,50000,391,50000,0,0,0,0,0.00,0.00,0.00,0.00
2014-05-24 10:40:00,0,49656,0,0.00,0,0,0,0,48010,50000,658,50000,0,0,0,0,0.00,0.00,0.00,0.00
2014-05-24 10:50:00,0,50000,0,0.00,0,0,0,0,50000,50000,0,50000,0,0,0,0,0.00,0.00,0.00,0.00
2014-05-24 11:00:00,0,49609,0,0.00,0,0,0,0,46572,50000,1022,50000,0,0,0,0,0.00,0.00,0.00,0.00
2014-05-24 11:10:00,0,49714,0,0.00,0,0,0,0,47142,50000,857,50000,0,0,0,0,0.00,0.00,0.00,0.00
2014-05-24 11:20:00,0,46979,0,0.00,0,0,0,0,38568,50000,3720,48353,0,0,0,0,0.00,0.00,0.00,0.00
2014-05-24 11:30:00,0,49270,0,0.00,0,0,0,0,46049,50000,1438,50000,0,0,0,0,0.00,0.00,0.00,0.00
2014-05-24 11:40:00,0,50000,0,0.00,0,0,0,0,50000,50000,0,50000,0,0,0,0,0.00,0.00,0.00,0.00
2014-05-24 11:50:00,0,50000,0,0.00,0,0,0,0,50000,50000,0,50000,0,0,0,0,0.00,0.00,0.00,0.00
2014-05-24 12:00:00,0,49503,0,0.00,0,0,0,0,47174,50000,928,50000,0,0,0,0,0.00,0.00,0.00,0.00
2014-05-24 12:10:00,0,49717,0,0.00,0,0,0,0,48199,50000,566,50000,0,0,0,0,0.00,0.00,0.00,0.00
2014-05-24 12:20:00,0,50000,0,0.00,0,0,0,0,50000,50000,0,50000,0,0,0,0,0.00,0.00,0.00,0.00
2014-05-24 12:30:00,0,48716,0,0.00,0,0,0,0,44704,50000,1759,49682,0,0,0,0,0.00,0.00,0.00,0.00
2014-05-24 12:40:00,0,47835,0,0.00,0,0,0,0,41941,50000,2633,48604,0,0,0,0,0.00,0.00,0.00,0.00
2014-05-24 12:50:00,0,49991,0,0.00,0,0,0,0,49911,50000,27,50000,0,0,0,0,0.00,0.00,0.00,0.00
2014-05-24 13:00:00,0,50000,0,0.00,0,0,0,0,50000,50000,0,50000,0,0,0,0,0.00,0.00,0.00,0.00
2014-05-24 13:10:00,0,50000,0,0.00,0,0,0,0,50000,50000,0,50000,0,0,0,0,0.00,0.00,0.00,0.00
2014-05-24 13:20:00,0,50000,0,0.00,0,0,0,0,50000,50000,0,50000,0,0,0,0,0.00,0.00,0.00,0.00
2014-05-24 13:30:00,0,50000,0,0.00,0,0,0,0,50000,50000,0,50000,0,0,0,0,0.00,0.00,0.00,0.00
2014-05-24 13:40:00,0,50000,0,0.00,0,0,0,0,50000,50000,0,50000,0,0,0,0,0.00,0.00,0.00,0.00
2014-05-24 13:50:00,0,50000,0,0.00,0,0,0,0,50000,50000,0,50000,0,0,0,0,0.00,0.00,0.00,0.00
2014-05-24 14:00:00,2,50000,0,0.00,0,2,1,2,50000,50000,0,50000,0,0,0,0,0.00,0.00,0.00,0.00
2014-05-24 14:10:00,2,50000,0,0.00,2,2,0,2,50000,50000,0,50000,0,0,0,0,0.00,0.00,0.00,0.00
2014-05-24 14:20:00,2,50000,0,0.00,2,2,0,2,50000,50000,0,50000,0,0,0,0,0.00,0.00,0.00,0.00
2014-05-24 14:30:00,2,50000,0,0.00,2,2,0,2,50000,50000,0,50000,0,0,0,0,0.00,0.00,0.00,0.00
2014-05-24 14:40:00,2,50000,0,0.00,2,2,0,2,50000,50000,0,50000,0,0,0,0,0.00,0.00,0.00,0.00
2014-05-24 14:50:00,2,50000,0,0.00,2,2,0,2,49997,50000,1,50000,0,0,0,0,0.00,0.00,0.00,0.00
2014-05-24 15:00:00,2,50000,0,0.00,2,2,0,2,50000,50000,0,50000,0,0,0,0,0.00,0.00,0.00,0.00
2014-05-24 15:10:00,2,50000,0,0.00,2,2,0,2,50000,50000,0,50000,0,0,0,0,0.00,0.00,0.00,0.00
2014-05-24 15:20:00,2,50000,0,0.00,2,2,0,2,50000,50000,0,50000,0,0,0,0,0.00,0.00,0.00,0.00
2014-05-24 15:30:00,2,50000,0,0.00,2,2,0,2,50000,50000,0,50000,0,0,0,0,0.00,0.00,0.00,0.00
2014-05-24 15:40:00,2,49982,0,0.00,2,2,0,2,49823,50000,53,50000,0,0,0,0,0.00,0.00,0.00,0.00
2014-05-24 15:50:00,2,50000,0,0.00,2,2,0,2,50000,50000,0,50000,0,0,0,0,0.00,0.00,0.00,0.00
2014-05-24 16:00:00,2,50000,0,0.00,2,2,0,2,50000,50000,0,50000,0,0,0,0,0.00,0.00,0.00,0.00
2014-05-24 16:10:00,2,50000,0,0.00,2,2,0,2,50000,50000,0,50000,0,0,0,0,0.00,0.00,0.00,0.00
2014-05-24 16:20:00,2,49457,0,0.00,2,2,0,2,45524,50000,1342,50000,0,0,0,0,0.00,0.00,0.00,0.00
2014-05-24 16:30:00,2,50000,0,0.00,2,2,0,2,50000,50000,0,50000,0,0,0,0,0.00,0.00,0.00,0.00
2014-05-24 16:40:00,2,49830,0,0.00,2,2,0,2,48298,50000,511,50000,0,0,0,0,0.00,0.00,0.00,0.00
2014-05-24 16:50:00,2,49917,0,0.00,2,2,0,2,49171,50000,249,50000,0,0,0,0,0.00,0.00,0.00,0.00
2014-05-24 17:00:00,2,49838,0,0.00,2,2,0,2,48376,50000,487,50000,0,0,0,0,0.00,0.00,0.00,0.00
2014-05-24 17:10:00,2,50000,0,0.00,2,2,0,2,50000,50000,0,50000,0,0,0,0,0.00,0.00,0.00,0.00
2014-05-24 17:20:00,2,49326,0,0.00,2,2,0,2,46206,50000,1220,50000,0,0,0,0,0.00,0.00,0.00,0.00
2014-05-24 17:30:00,2,47853,0,0.00,2,2,0,2,43486,50000,2401,48552,0,0,0,0,0.00,0.00,0.00,0.00
2014-05-24 17:40:00,2,34824,0,0.00,2,2,0,2,9423,50000,13269,35216,0,0,0,0,0.00,0.00,0.00,0.00
2014-05-24 17:50:00,2,49849,0,0.00,2,2,0,2,48494,50000,452,50000,0,0,0,0,0.00,0.00,0.00,0.00
2014-05-24 18:00:00,2,33212,0,0.00,2,2,0,2,3221,50000,20750,50000,0,0,0,0,0.00,0.00,0.00,0.00
2014-05-24 18:10:00,2,30533,0,0.00,2,2,0,2,3870,50000,16837,34597,0,0,0,0,0.00,0.00,0.00,0.00
2014-05-24 18:20:00,2,10467,4,0.00,2,2,0,2,4217,20955,5742,8476,0,10,5,0,0.00,0.00,0.00,0.00
2014-05-24 18:30:00,2,5109,10,0.00,2,2,0,2,1962,9506,2427,4297,10,10,0,10,0.00,0.00,0.00,0.00
2014-05-24 18:40:00,2,4120,10,0.00,2,2,0,2,944,10438,3224,2838,10,10,0,10,0.00,0.00,0.00,0.00
2014-05-24 18:50:00,2,679,22,0.00,2,2,0,2,590,920,99,644,10,34,12,22,0.00,0.00,0.00,0.00
2014-05-24 19:00:00,2,2121,31,0.00,2,2,0,2,1146,3247,607,2124,20,34,6,34,0.00,0.00,0.00,0.00
2014-05-24 19:10:00,2,1903,20,0.00,2,2,0,2,941,3210,748,1722,20,20,0,20,0.00,0.00,0.00,0.00
2014-05-24 19:20:00,2,13120,20,0.00,2,2,0,2,5741,33494,8506,9397,20,20,0,20,0.00,0.00,0.00,0.00
2014-05-24 19:30:00,2,1816,20,0.00,2,2,0,2,647,7149,1838,1153,20,20,0,20,0.00,0.00,0.00,0.00
2014-05-24 19:40:00,2,738,32,0.00,2,2,0,2,471,970,164,767,30,33,1,32,0.00,0.00,0.00,0.00
2014-05-24 19:50:00,2,555,34,0.00,2,2,0,2,356,955,187,504,33,34,0,34,0.00,0.00,0.00,0.00
2014-05-24 20:00:00,2,449,34,0.00,2,2,0,2,375,588,64,426,34,34,0,34,0.00,0.00,0.00,0.00
2014-05-24 20:10:00,2,400,34,0.00,0,2,1,2,310,482,57,398,34,34,0,34,0.00,0.00,0.00,0.00
2014-05-24 20:20:00,2,355,34,0.00,0,2,1,2,272,506,64,338,34,34,0,34,0.00,0.00,0.00,0.00
2014-05-24 20:30:00,0,686,34,0.00,0,0,0,0,466,974,193,591,34,34,0,34,0.00,0.00,0.00,0.00
2014-05-24 20:40:00,0,2218,32,0.00,0,0,0,0,871,6993,1861,1198,30,34,2,33,0.00,0.00,0.00,0.00
2014-05-24 20:50:00,0,8221,20,0.00,0,0,0,0,1520,19599,4664,7374,20,20,0,20,0.00,0.00,0.00,0.00
2014-05-24 21:00:00,2,737,24,0.00,0,2,1,2,354,1095,299,742,20,32,5,20,0.00,0.00,0.00,0.00
2014-05-24 21:10:00,2,238,32,0.00,2,2,0,2,205,283,22,236,32,34,1,32,0.00,0.00,0.00,0.00
2014-05-24 21:20:00,2,228,34,0.00,2,2,0,2,214,249,12,225,34,34,0,34,0.00,0.00,0.00,0.00
2014-05-24 21:30:00,2,270,34,0.00,2,2,0,2,213,371,56,241,34,34,0,34,0.00,0.00,0.00,0.00
2014-05-24 21:40:00,2,433,34,0.00,2,2,0,2,261,704,136,410,34,34,0,34,0.00,0.00,0.00,0.00
2014-05-24 21:50:00,2,542,34,0.00,2,2,0,2,467,686,76,516,33,34,0,34,0.00,0.00,0.00,0.00
2014-05-24 22:00:00,0,577,32,0.00,0,0,0,0,464,680,71,585,32,33,0,32,0.00,0.00,0.00,0.00
2014-05-24 22:10:00,0,894,32,0.00,0,0,0,0,532,1473,345,862,32,32,0,32,0.00,0.00,0.00,0.00
2014-05-24 22:20:00,0,2840,26,0.00,0,0,0,0,1049,5187,1331,2488,20,32,6,26,0.00,0.00,0.00,0.00
2014-05-24 22:30:00,0,10304,20,0.00,0,0,0,0,1271,29666,9060,7959,20,20,0,20,0.00,0.00,0.00,0.00
2014-05-24 22:40:00,0,43528,20,0.00,0,0,0,0,13229,50000,11411,49512,20,20,0,20,0.00,0.00,0.00,0.00
2014-05-24 22:50:00,0,32028,20,0.00,0,0,0,0,1341,50000,22132,49740,20,20,0,20,0.00,0.00,0.00,0.00
2014-05-24 23:00:00,2,2872,20,0.00,0,2,1,2,1080,4123,989,3310,20,20,0,20,0.00,0.00,0.00,0.00
2014-05-24 23:10:00,2,5570,20,0.00,2,2,0,2,1461,9520,2866,5841,20,20,0,20,0.00,0.00,0.00,0.00
2014-05-24 23:20:00,2,4310,15,0.00,2,2,0,2,967,13497,4622,1810,10,20,5,15,0.00,0.00,0.00,0.00
2014-05-24 23:30:00,2,919,23,0.00,2,2,0,2,617,1120,139,940,10,34,11,30,0.00,0.00,0.00,0.00
2014-05-24 23:40:00,2,1857,27,0.00,2,2,0,2,1257,2666,467,1878,20,34,6,30,0.00,0.00,0.00,0.00
2014-05-24 23:50:00,2,1889,20,0.00,2,2,0,2,1190,3197,536,1780,20,20,0,20,0.00,0.00,0.00,0.00
